Stations météo

réclame
Mon MeteoGroup
Deelen, Pays-Bas (6275): Température de l'air & dewpoint: 17.01.2020 22:00:00 - 23.01.2020 22:00:00 (CET)Deelen, Pays-Bas (6275): Température de l'air 5cm: 17.01.2020 22:00:00 - 23.01.2020 22:00:00 (CET)Deelen, Pays-Bas (6275): Vitesse du vent & gusts: 17.01.2020 22:00:00 - 23.01.2020 22:00:00 (CET)Deelen, Pays-Bas (6275): Direction du vent: 17.01.2020 22:00:00 - 23.01.2020 22:00:00 (CET)Deelen, Pays-Bas (6275): reduced air pressure: 17.01.2020 22:00:00 - 23.01.2020 22:00:00 (CET)Deelen, Pays-Bas (6275): visibility: 17.01.2020 22:00:00 - 23.01.2020 22:00:00 (CET)Deelen, Pays-Bas (6275): Quantités de précipitations: 17.01.2020 22:00:00 - 23.01.2020 22:00:00 (CET)
Date & Time tt [°C] td [°C] tt 5cm [°C] ff [km/h] ff [knt] fx [km/h] fx [knt] dd ppp [hPa] vv [km] rr [mm]
23.01.2020 22:00:00 2,4 1,2 2,3 5 3 11 6 E 1027,6 7 0,0
23.01.2020 21:00:00 2,4 1,3 2,3 8 4 11 6 SE 1028,1 5 0,0
23.01.2020 20:00:00 2,0 1,6 1,6 5 3 7 4 NE 1028,3 3,4 0,0
23.01.2020 19:00:00 1,0 1,0 0,7 4 2 11 6 - 1028,7 2,5 0,0
23.01.2020 18:00:00 2,1 1,6 2,0 9 5 14 8 E 1029,0 3,2 0,0
23.01.2020 17:00:00 2,4 1,8 1,7 8 4 11 6 ESE 1029,3 2,4 0,0
23.01.2020 16:00:00 3,5 2,4 3,9 8 4 14 8 ESE 1029,9 3,5 0,0
23.01.2020 15:00:00 3,5 2,6 3,8 9 5 14 8 ESE 1030,7 2,9 0,0
23.01.2020 14:00:00 4,5 3,6 5,5 9 5 14 8 SSE 1031,4 4,3 0,0
23.01.2020 13:00:00 4,5 3,5 4,8 8 4 14 8 SE 1032,1 5 0,0
23.01.2020 12:00:00 4,3 4,3 4,5 4 2 11 6 - 1033,1 2,6 0,0
23.01.2020 11:00:00 3,6 3,5 4,1 4 2 7 4 - 1033,8 0,3 0,0
23.01.2020 10:00:00 2,9 2,9 3,0 8 4 11 6 ESE 1033,9 0,2 0,0
23.01.2020 09:00:00 2,6 2,6 2,8 9 5 11 6 ESE 1034,1 0,2 0,0
23.01.2020 08:00:00 3,3 3,3 3,4 5 3 7 4 SSE 1034,0 0,3 0,0
23.01.2020 07:00:00 3,9 3,8 3,9 5 3 7 4 SE 1034,3 0,4 0,0
23.01.2020 06:00:00 4,0 4,0 4,1 5 3 7 4 ESE 1034,5 0,3 0,0
23.01.2020 05:00:00 4,3 4,2 4,3 4 2 7 4 - 1035,0 0,5 0,0
23.01.2020 04:00:00 4,5 4,5 4,2 2 1 4 2 - 1035,4 1,4 0,0
23.01.2020 03:00:00 4,4 4,4 4,3 4 2 7 4 SSE 1035,9 0,4 0,0
23.01.2020 02:00:00 4,5 4,4 4,4 4 2 4 2 S 1036,2 0,5 0,0
23.01.2020 01:00:00 4,8 4,7 4,7 2 1 7 4 - 1036,5 1,5 0,0
23.01.2020 00:00:00 4,7 4,7 4,8 4 2 7 4 - 1036,7 0,7 0,2
22.01.2020 23:00:00 4,7 4,7 4,6 0 0 0 0 N 1036,7 0,6 0,2
22.01.2020 22:00:00 4,7 4,7 4,7 0 0 4 2 N 1036,7 0,9 0,2
22.01.2020 21:00:00 4,6 4,5 4,6 2 1 4 2 ENE 1036,7 0,6 0,5
22.01.2020 20:00:00 4,6 4,5 4,6 4 2 7 4 NW 1036,6 0,5 0,3
22.01.2020 19:00:00 4,5 4,5 4,5 0 0 7 4 N 1036,5 1,0 0,0
22.01.2020 18:00:00 4,5 4,5 4,5 2 1 11 6 - 1036,2 1,9 0,0
22.01.2020 17:00:00 4,6 4,6 4,7 2 1 7 4 - 1036,2 0,7 0,1
22.01.2020 16:00:00 4,7 4,7 4,8 4 2 7 4 - 1036,3 0,5 0,0
22.01.2020 15:00:00 4,5 4,4 4,8 5 3 7 4 W 1036,1 0,4 0,0
22.01.2020 14:00:00 4,1 4,1 4,6 5 3 11 6 W 1036,3 0,4 0,0
22.01.2020 13:00:00 3,5 3,4 3,8 8 4 11 6 W 1036,5 0,5 0,0
22.01.2020 12:00:00 2,7 2,6 3,0 5 3 11 6 WSW 1037,2 1,6 0,0
22.01.2020 11:00:00 2,0 2,0 2,2 8 4 11 6 SW 1037,2 1,1 0,2
22.01.2020 10:00:00 1,5 1,5 1,7 5 3 11 6 SW 1037,1 0,6 0,1
22.01.2020 09:00:00 1,1 1,0 1,1 5 3 11 6 SW 1036,9 1,0 0,0
22.01.2020 08:00:00 0,8 0,8 0,9 5 3 11 6 WSW 1036,7 1,4 0,0
22.01.2020 07:00:00 0,7 0,7 0,7 8 4 14 8 SW 1036,4 1,2 0,0
22.01.2020 06:00:00 0,6 0,6 0,7 9 5 14 8 SSW 1036,7 1,0 0,0
22.01.2020 05:00:00 0,8 0,7 0,9 9 5 14 8 SSW 1037,0 0,5 0,0
22.01.2020 04:00:00 0,7 0,7 0,8 8 4 11 6 SSW 1037,7 0,4 0,0
22.01.2020 03:00:00 0,7 0,7 0,8 5 3 7 4 SSW 1038,0 0,3 0,0
22.01.2020 02:00:00 0,6 0,5 0,7 5 3 11 6 SSW 1038,0 0,3 0,0
22.01.2020 01:00:00 0,5 0,4 0,5 5 3 11 6 SW 1038,7 0,3 0,0
22.01.2020 00:00:00 0,3 0,2 0,4 8 4 14 8 SW 1039,0 0,3 0,0
21.01.2020 23:00:00 0,1 0,1 0,3 4 2 11 6 WSW 1039,4 0,4 0,0
21.01.2020 22:00:00 0,0 0,0 0,2 5 3 14 8 WSW 1039,4 0,3 0,0
21.01.2020 21:00:00 -0,2 -0,2 0,0 8 4 14 8 SW 1040,1 0,3 0,0
21.01.2020 20:00:00 -0,2 -0,3 -0,1 9 5 18 10 SW 1039,9 0,3 0,0
21.01.2020 19:00:00 -0,1 -0,1 0,0 8 4 11 6 WSW 1040,3 0,3 0,0
21.01.2020 18:00:00 -0,5 -0,5 -0,3 8 4 11 6 W 1040,7 0,3 0,0
21.01.2020 17:00:00 -0,5 -0,6 -0,2 8 4 14 8 W 1040,7 0,2 0,0
21.01.2020 16:00:00 0,0 -0,1 0,5 5 3 14 8 WSW 1041,0 0,3 0,0
21.01.2020 15:00:00 0,1 0,1 0,8 9 5 14 8 SW 1041,2 0,5 0,0
21.01.2020 14:00:00 0,2 0,2 0,9 9 5 14 8 SW 1041,7 0,6 0,0
21.01.2020 13:00:00 -0,1 -0,1 0,9 9 5 14 8 S 1042,2 1,4 0,0
21.01.2020 12:00:00 -0,2 -0,3 0,2 9 5 14 8 SW 1042,8 2,8 0,0
21.01.2020 11:00:00 -0,7 -0,7 -0,1 8 4 14 8 S 1043,0 2,3 0,0
21.01.2020 10:00:00 -0,6 -0,7 -0,7 5 3 14 8 S 1042,8 4,0 0,0
21.01.2020 09:00:00 -2,4 -2,4 -2,7 4 2 7 4 SSE 1042,7 0,6 0,0
21.01.2020 08:00:00 -1,7 -1,7 -2,0 4 2 7 4 SSE 1042,7 0,3 0,0
21.01.2020 07:00:00 -1,1 -1,2 -3,2 2 1 7 4 - 1043,0 0,4 0,0
21.01.2020 06:00:00 -0,8 -0,9 -2,1 4 2 7 4 S 1042,9 3,0 0,0
21.01.2020 05:00:00 0,0 -0,1 -0,9 4 2 7 4 S 1043,2 0,5 0,0
21.01.2020 04:00:00 0,5 0,4 -0,9 2 1 7 4 SW 1043,6 2,0 0,0
21.01.2020 03:00:00 1,5 1,4 1,4 8 4 14 8 S 1044,2 0,5 0,0
21.01.2020 02:00:00 2,3 2,3 2,2 5 3 11 6 S 1044,3 0,5 0,0
21.01.2020 01:00:00 3,1 3,0 3,0 8 4 14 8 SSW 1044,9 1,0 0,0
21.01.2020 00:00:00 3,1 3,0 3,0 4 2 7 4 S 1045,1 0,3 0,0
20.01.2020 23:00:00 3,5 3,4 3,3 8 4 11 6 S 1045,4 1,8 0,0
20.01.2020 22:00:00 3,5 3,4 3,0 5 3 7 4 S 1045,7 2,4 0,0
20.01.2020 21:00:00 3,2 3,1 2,3 4 2 7 4 S 1046,1 2,4 0,0
20.01.2020 20:00:00 3,9 3,8 3,3 5 3 11 6 S 1046,1 2,9 0,0
20.01.2020 19:00:00 3,7 3,6 3,2 8 4 11 6 S 1046,1 2,9 0,0
20.01.2020 18:00:00 4,1 4,0 3,6 8 4 11 6 S 1046,3 3,1 0,0
20.01.2020 17:00:00 4,9 4,6 4,7 5 3 14 8 S 1046,5 5 0,0
20.01.2020 16:00:00 5,5 4,7 5,5 9 5 14 8 SSW 1046,5 9 0,0
20.01.2020 15:00:00 5,4 4,6 5,7 9 5 14 8 SSW 1047,0 9 0,0
20.01.2020 14:00:00 5,1 4,7 5,6 13 7 14 8 SSW 1047,4 8 0,0
20.01.2020 13:00:00 5,3 5,0 5,5 5 3 11 6 SW 1047,9 9 0,0
20.01.2020 12:00:00 3,5 3,5 3,7 4 2 7 4 - 1048,3 3,4 0,0
20.01.2020 11:00:00 1,8 1,8 1,8 4 2 7 4 - 1048,3 3,0 0,0
20.01.2020 10:00:00 0,3 0,3 0,2 4 2 7 4 - 1048,1 0,3 0,0
20.01.2020 09:00:00 -0,4 -0,4 -0,6 2 1 4 2 ESE 1047,9 3,2 0,0
20.01.2020 08:00:00 -0,6 -0,7 -0,8 2 1 4 2 SSE 1047,8 0,8 0,0
20.01.2020 07:00:00 -1,2 -1,2 -1,3 4 2 4 2 NNW 1047,6 0,6 0,0
20.01.2020 06:00:00 -1,6 -1,6 -1,7 2 1 4 2 NNW 1047,3 0,5 0,0
20.01.2020 05:00:00 -1,8 -1,9 -1,8 0 0 4 2 N 1047,4 0,4 0,0
20.01.2020 04:00:00 -1,5 -1,6 -1,6 0 0 4 2 N 1047,2 0,3 0,0
20.01.2020 03:00:00 -1,5 -1,6 -1,6 4 2 4 2 NNW 1047,2 0,4 0,0
20.01.2020 02:00:00 -1,1 -1,1 -1,4 2 1 4 2 - 1047,0 0,2 0,0
20.01.2020 01:00:00 -1,0 -1,0 -1,4 0 0 4 2 N 1047,0 0,4 0,0
20.01.2020 00:00:00 -0,3 -0,3 -1,2 4 2 7 4 - 1046,8 0,3 0,0
19.01.2020 23:00:00 -1,4 -1,4 -2,3 2 1 4 2 - 1046,7 2,4 0,0
19.01.2020 22:00:00 -0,9 -0,9 -2,0 4 2 4 2 NW 1046,0 2,8 0,0
19.01.2020 21:00:00 2,1 1,9 0,5 5 3 7 4 NNW 1045,4 1,9 0,0
19.01.2020 20:00:00 1,8 1,7 -0,9 8 4 11 6 NNW 1045,0 9 0,0
19.01.2020 19:00:00 2,8 2,1 0,7 5 3 7 4 NNW 1044,2 9 0,0
19.01.2020 18:00:00 1,6 0,2 0,2 5 3 11 6 NW 1043,5 10 0,0
19.01.2020 17:00:00 5,1 2,2 3,4 8 4 18 10 NW 1042,7 10 0,0
19.01.2020 16:00:00 6,9 2,2 6,5 15 8 29 16 N 1041,7 10 0,0
19.01.2020 15:00:00 7,3 2,8 7,4 15 8 22 12 NNW 1040,9 10 0,0
19.01.2020 14:00:00 6,9 3,1 6,7 15 8 25 14 N 1040,3 10 0,0
19.01.2020 13:00:00 6,4 4,5 6,6 13 7 18 10 NNW 1039,9 10 0,0
19.01.2020 12:00:00 4,3 3,6 4,7 8 4 14 8 NW 1039,5 10 0,0
19.01.2020 11:00:00 3,7 3,0 3,1 9 5 14 8 NNW 1039,0 10 0,0
19.01.2020 10:00:00 1,1 1,0 0,6 5 3 14 8 N 1038,0 7 0,0
19.01.2020 09:00:00 0,6 0,5 -1,2 8 4 7 4 N 1036,6 6 0,0
19.01.2020 08:00:00 0,3 0,2 -1,1 2 1 7 4 N 1035,1 4,7 0,0
19.01.2020 07:00:00 -0,5 -0,5 -2,1 4 2 7 4 - 1034,2 6 0,1
19.01.2020 06:00:00 -1,3 -1,3 -2,8 2 1 4 2 - 1033,6 8 0,1
19.01.2020 05:00:00 -1,5 -1,6 -3,5 2 1 11 6 N 1032,9 4,0 0,0
19.01.2020 04:00:00 -1,2 -1,3 -3,3 2 1 11 6 W 1032,3 10 0,0
19.01.2020 03:00:00 -0,3 -0,4 -2,7 5 3 7 4 WSW 1031,8 8 0,0
19.01.2020 02:00:00 1,3 1,2 -0,2 9 5 29 16 - 1031,3 10 0,0
19.01.2020 01:00:00 0,5 0,4 -1,6 8 4 18 10 W 1030,6 10 0,0
19.01.2020 00:00:00 0,8 0,7 -1,4 5 3 11 6 WNW 1030,1 10 0,0
18.01.2020 23:00:00 0,8 0,8 -1,3 8 4 14 8 W 1029,4 10 0,0
18.01.2020 22:00:00 0,8 0,8 -1,1 8 4 11 6 WSW 1028,9 10 0,0
18.01.2020 21:00:00 0,4 0,3 -1,4 5 3 7 4 WSW 1028,5 10 0,0
18.01.2020 20:00:00 0,7 0,5 -0,6 4 2 14 8 - 1028,0 10 0,2
18.01.2020 19:00:00 1,4 1,3 0,1 5 3 7 4 SW 1027,3 10 0,0
18.01.2020 18:00:00 1,7 1,5 0,5 5 3 11 6 WSW 1026,6 10 0,0
18.01.2020 17:00:00 2,7 1,7 2,2 8 4 40 21 W 1025,6 10 0,4
18.01.2020 16:00:00 3,0 2,4 2,6 24 13 47 25 NW 1025,0 3,2 1,7
18.01.2020 15:00:00 6,8 1,7 7,0 18 10 36 19 W 1024,0 10 0,0
18.01.2020 14:00:00 6,6 2,7 6,4 11 6 29 16 W 1023,7 10 0,0
18.01.2020 13:00:00 6,3 3,5 6,0 15 8 29 16 WSW 1023,4 10 0,0
18.01.2020 12:00:00 5,6 3,9 5,8 18 10 29 16 SW 1023,6 10 0,0
18.01.2020 11:00:00 4,5 3,4 4,8 18 10 29 16 SW 1023,2 10 0,0
18.01.2020 10:00:00 3,6 2,9 3,5 21 11 29 16 SW 1022,6 10 0,0
18.01.2020 09:00:00 3,4 2,5 3,2 16 9 25 14 SSW 1022,0 10 0,0
18.01.2020 08:00:00 3,2 2,3 2,9 16 9 22 12 SSW 1021,2 10 0,0
18.01.2020 07:00:00 3,0 2,2 2,1 13 7 29 16 SSW 1021,0 10 0,0
18.01.2020 06:00:00 3,0 2,0 2,2 21 11 29 16 SSW 1020,5 10 0,0
18.01.2020 05:00:00 3,6 2,6 3,1 18 10 29 16 SW 1020,4 10 0,0
18.01.2020 04:00:00 3,3 2,4 2,5 18 10 29 16 SSW 1020,2 10 0,0
18.01.2020 03:00:00 3,5 2,2 2,3 15 8 22 12 SSW 1020,1 10 0,0
18.01.2020 02:00:00 4,0 1,7 2,9 18 10 25 14 SSW 1019,6 10 0,0
18.01.2020 01:00:00 4,1 1,8 3,0 15 8 22 12 SW 1019,1 10 0,0
18.01.2020 00:00:00 3,6 1,6 2,5 15 8 25 14 SW 1018,6 10 0,0
17.01.2020 23:00:00 4,8 2,2 4,2 18 10 36 19 WSW 1018,2 10 0,0
17.01.2020 22:00:00 5,9 2,8 5,3 24 13 40 21 WSW 1017,1 10 0,0

tt = Température de l'air
td = dewpoint
tt 5cm = Température de l'air 5cm
ff = Vitesse du vent
fx = gusts
dd = Direction du vent
ppp = reduced air pressure
vv = visibility
rr = Quantités de précipitations

stations d'obs. à proximité